RYR859 EPMO-EPGD

Flight info

Callsign RYR859
Flight time 0h 28m
Altitude 24000
Route OLILA L621 RILAB T270 OSLOG
Aircraft B738/M-SDE2E3FGHIRWXY/LB1

Departure

Time 2026-05-08 19:56
Airport Warsaw Modlin Airport (EPMO)

Arrival

Time 2026-05-08 20:25
Airport Gdańsk Lech Wałęsa Airport (EPGD)
Time Latitude Longitude Altitude Speed Heading
2026-05-08 19:34 52.44741 20.65181 337 ft 0 kts 206°
2026-05-08 19:48 52.44761 20.65194 332 ft 4 kts 192°
2026-05-08 19:48 52.44774 20.65195 336 ft 2 kts 142°
2026-05-08 19:48 52.44780 20.65180 334 ft 2 kts 99°
2026-05-08 19:49 52.44781 20.65161 332 ft 2 kts 88°
2026-05-08 19:49 52.44781 20.65143 333 ft 2 kts 84°
2026-05-08 19:49 52.44779 20.65127 335 ft 0 kts 82°
2026-05-08 19:52 52.44780 20.65133 336 ft 3 kts 82°
2026-05-08 19:52 52.44785 20.65199 333 ft 8 kts 82°
2026-05-08 19:52 52.44795 20.65312 333 ft 12 kts 82°
2026-05-08 19:52 52.44811 20.65465 334 ft 15 kts 79°
2026-05-08 19:53 52.44832 20.65654 337 ft 18 kts 83°
2026-05-08 19:53 52.44848 20.65888 337 ft 22 kts 80°
2026-05-08 19:53 52.44873 20.66130 337 ft 21 kts 81°
2026-05-08 19:53 52.44896 20.66365 335 ft 21 kts 81°
2026-05-08 19:54 52.44917 20.66600 337 ft 25 kts 83°
2026-05-08 19:54 52.44943 20.66887 336 ft 25 kts 84°
2026-05-08 19:54 52.44977 20.67074 333 ft 12 kts 44°
2026-05-08 19:54 52.45013 20.67077 334 ft 10 kts 352°
2026-05-08 19:55 52.45134 20.67048 336 ft 22 kts 351°
2026-05-08 19:55 52.45278 20.66959 338 ft 17 kts 303°
2026-05-08 19:55 52.45250 20.66544 333 ft 72 kts 261°
2026-05-08 19:55 52.45138 20.65361 333 ft 139 kts 261°
2026-05-08 19:56 52.44977 20.63581 662 ft 166 kts 263°
2026-05-08 19:56 52.44828 20.61616 1365 ft 180 kts 265°
2026-05-08 19:56 52.44673 20.59512 2031 ft 195 kts 262°
2026-05-08 19:56 52.44455 20.57304 2777 ft 200 kts 268°
2026-05-08 19:57 52.44883 20.55054 3019 ft 223 kts 310°
2026-05-08 19:57 52.46192 20.53594 3520 ft 235 kts 334°
2026-05-08 19:57 52.47741 20.52383 3931 ft 255 kts 333°
2026-05-08 19:57 52.49351 20.51103 4787 ft 259 kts 333°
2026-05-08 19:58 52.50970 20.49778 5693 ft 261 kts 332°
2026-05-08 19:58 52.52598 20.48413 6579 ft 264 kts 332°
2026-05-08 19:58 52.54240 20.47011 7393 ft 268 kts 331°
2026-05-08 19:58 52.55899 20.45577 8219 ft 271 kts 330°
2026-05-08 19:59 52.57575 20.44116 9037 ft 275 kts 330°
2026-05-08 19:59 52.59249 20.42650 9855 ft 278 kts 330°
2026-05-08 19:59 52.60971 20.41136 10538 ft 286 kts 330°
2026-05-08 19:59 52.62799 20.39522 10741 ft 311 kts 330°
2026-05-08 20:00 52.64777 20.37774 10931 ft 334 kts 330°
2026-05-08 20:00 52.66880 20.35914 11234 ft 351 kts 330°
2026-05-08 20:00 52.69051 20.33967 11843 ft 357 kts 327°
2026-05-08 20:00 52.71065 20.31570 12580 ft 359 kts 317°
2026-05-08 20:01 52.72804 20.28608 13341 ft 360 kts 310°
2026-05-08 20:01 52.74447 20.25536 14033 ft 364 kts 310°
2026-05-08 20:01 52.76130 20.22378 14673 ft 367 kts 310°
2026-05-08 20:01 52.77834 20.19218 15353 ft 369 kts 310°
2026-05-08 20:02 52.79554 20.16053 16030 ft 372 kts 310°
2026-05-08 20:02 52.81289 20.12864 16681 ft 374 kts 310°
2026-05-08 20:02 52.82994 20.09588 17319 ft 377 kts 308°
2026-05-08 20:02 52.84675 20.06247 17975 ft 380 kts 308°
2026-05-08 20:03 52.86362 20.02862 18589 ft 382 kts 308°
2026-05-08 20:03 52.88056 19.99463 19132 ft 384 kts 308°
2026-05-08 20:03 52.89769 19.96031 19624 ft 389 kts 308°
2026-05-08 20:03 52.91506 19.92558 20061 ft 393 kts 308°
2026-05-08 20:04 52.93261 19.89052 20150 ft 399 kts 308°
2026-05-08 20:04 52.95031 19.85518 20152 ft 398 kts 308°
2026-05-08 20:04 52.96797 19.81988 20157 ft 397 kts 308°
2026-05-08 20:04 52.98689 19.78646 20158 ft 399 kts 317°
2026-05-08 20:05 53.00940 19.75934 20171 ft 402 kts 326°
2026-05-08 20:05 53.03438 19.73833 20170 ft 404 kts 334°
2026-05-08 20:05 53.06003 19.72062 20173 ft 405 kts 335°
2026-05-08 20:05 53.08604 19.70292 20166 ft 405 kts 335°
2026-05-08 20:06 53.11223 19.68508 20167 ft 405 kts 335°
2026-05-08 20:06 53.13825 19.66723 20169 ft 405 kts 335°
2026-05-08 20:06 53.16427 19.64925 20172 ft 405 kts 335°
2026-05-08 20:06 53.19024 19.63119 20168 ft 405 kts 335°
2026-05-08 20:07 53.21617 19.61307 20163 ft 399 kts 335°
2026-05-08 20:07 53.24119 19.59559 20154 ft 381 kts 335°
2026-05-08 20:07 53.26521 19.57876 20158 ft 371 kts 335°
2026-05-08 20:07 53.28887 19.56211 20171 ft 369 kts 335°
2026-05-08 20:08 53.31258 19.54539 20101 ft 372 kts 335°
2026-05-08 20:08 53.33614 19.52875 19781 ft 370 kts 335°
2026-05-08 20:08 53.35975 19.51206 19354 ft 368 kts 335°
2026-05-08 20:08 53.38322 19.49547 18944 ft 364 kts 336°
2026-05-08 20:09 53.40652 19.47897 18515 ft 362 kts 336°
2026-05-08 20:09 53.42960 19.46262 18035 ft 359 kts 336°
2026-05-08 20:09 53.45255 19.44634 17572 ft 357 kts 336°
2026-05-08 20:09 53.47531 19.43018 17128 ft 354 kts 336°
2026-05-08 20:10 53.49787 19.41414 16697 ft 351 kts 336°
2026-05-08 20:10 53.52023 19.39822 16272 ft 348 kts 336°
2026-05-08 20:10 53.54221 19.38256 15860 ft 346 kts 337°
2026-05-08 20:10 53.56431 19.36679 15444 ft 344 kts 337°
2026-05-08 20:11 53.58621 19.35115 15033 ft 341 kts 337°
2026-05-08 20:11 53.60804 19.33554 14623 ft 340 kts 337°
2026-05-08 20:11 53.62974 19.32001 14209 ft 338 kts 337°
2026-05-08 20:11 53.65127 19.30458 13785 ft 337 kts 337°
2026-05-08 20:12 53.67283 19.28911 13341 ft 335 kts 337°
2026-05-08 20:12 53.69420 19.27375 12915 ft 333 kts 337°
2026-05-08 20:12 53.71540 19.25851 12505 ft 330 kts 338°
2026-05-08 20:12 53.73620 19.24354 12103 ft 328 kts 338°
2026-05-08 20:13 53.75713 19.22845 11703 ft 326 kts 338°
2026-05-08 20:13 53.77789 19.21347 11312 ft 324 kts 338°
2026-05-08 20:13 53.79858 19.19853 10951 ft 321 kts 338°
2026-05-08 20:13 53.81880 19.18390 10824 ft 311 kts 338°
2026-05-08 20:14 53.83841 19.16969 10683 ft 302 kts 339°
2026-05-08 20:14 53.85742 19.15591 10553 ft 293 kts 339°
2026-05-08 20:14 53.87587 19.14252 10432 ft 284 kts 339°
2026-05-08 20:14 53.89380 19.12950 10309 ft 276 kts 339°
2026-05-08 20:15 53.91122 19.11684 10184 ft 269 kts 339°
2026-05-08 20:15 53.92833 19.10441 9901 ft 267 kts 339°
2026-05-08 20:15 53.94536 19.09202 9637 ft 265 kts 340°
2026-05-08 20:15 53.96201 19.07991 9358 ft 263 kts 340°
2026-05-08 20:16 53.97880 19.06767 9079 ft 262 kts 340°
2026-05-08 20:16 53.99550 19.05549 8807 ft 260 kts 340°
2026-05-08 20:16 54.01207 19.04340 8542 ft 259 kts 340°
2026-05-08 20:16 54.02857 19.03134 8270 ft 257 kts 340°
2026-05-08 20:17 54.04498 19.01933 7996 ft 256 kts 340°
2026-05-08 20:17 54.06131 19.00738 7725 ft 255 kts 341°
2026-05-08 20:17 54.07761 18.99543 7464 ft 254 kts 341°
2026-05-08 20:17 54.09384 18.98354 7194 ft 254 kts 341°
2026-05-08 20:18 54.10983 18.97180 6926 ft 253 kts 341°
2026-05-08 20:18 54.12600 18.95992 6650 ft 253 kts 341°
2026-05-08 20:18 54.14219 18.94802 6355 ft 253 kts 341°
2026-05-08 20:18 54.15834 18.93613 6058 ft 253 kts 341°
2026-05-08 20:19 54.17456 18.92419 5666 ft 257 kts 341°
2026-05-08 20:19 54.19116 18.91197 5282 ft 261 kts 341°
2026-05-08 20:19 54.20782 18.89967 5019 ft 259 kts 341°
2026-05-08 20:19 54.22412 18.88760 4884 ft 252 kts 341°
2026-05-08 20:20 54.24001 18.87584 4754 ft 245 kts 341°
2026-05-08 20:20 54.25524 18.86456 4641 ft 238 kts 341°
2026-05-08 20:20 54.27020 18.85347 4520 ft 231 kts 341°
2026-05-08 20:20 54.28349 18.83806 4293 ft 236 kts 311°
2026-05-08 20:21 54.29155 18.81373 4109 ft 235 kts 297°
2026-05-08 20:21 54.29832 18.78825 4031 ft 235 kts 297°
2026-05-08 20:21 54.30493 18.76259 3932 ft 238 kts 295°
2026-05-08 20:21 54.31139 18.73625 3633 ft 242 kts 295°
2026-05-08 20:22 54.31783 18.70977 3300 ft 240 kts 295°
2026-05-08 20:22 54.32420 18.68364 2998 ft 234 kts 294°
2026-05-08 20:22 54.33038 18.65833 2658 ft 227 kts 294°
2026-05-08 20:22 54.33438 18.64199 2451 ft 221 kts 294°
2026-05-08 20:23 54.34208 18.61054 2062 ft 211 kts 294°
2026-05-08 20:23 54.34760 18.58803 1777 ft 198 kts 294°
2026-05-08 20:23 54.35275 18.56704 1509 ft 184 kts 294°
2026-05-08 20:23 54.35750 18.54767 1254 ft 168 kts 294°
2026-05-08 20:24 54.36181 18.53015 1017 ft 153 kts 295°
2026-05-08 20:24 54.36584 18.51378 813 ft 148 kts 295°
2026-05-08 20:24 54.36982 18.49760 630 ft 148 kts 294°
2026-05-08 20:24 54.37367 18.48191 484 ft 132 kts 295°
2026-05-08 20:25 54.37635 18.47119 458 ft 40 kts 295°
2026-05-08 20:25 54.37780 18.46792 457 ft 32 kts 321°
2026-05-08 20:25 54.37952 18.46595 458 ft 25 kts 326°
2026-05-08 20:25 54.38030 18.46617 457 ft 13 kts 27°
2026-05-08 20:26 54.38098 18.46675 459 ft 0 kts 26°